Weather History for Pontiac, MI

Change the Weather History Date:

Friday, February 1, 2013

  Actual Average Record
Temperature  
Mean Temperature 12 °F -  
Max Temperature 17 °F 31 °F 50 °F (2012)
Min Temperature 8 °F 16 °F 6 °F (2005)
Degree Days  
Heating Degree Days 52    
Moisture  
Dew Point 6 °F    
Average Humidity 71    
Maximum Humidity 85    
Minimum Humidity 58    
Precipitation  
Precipitation 0.00 in - - ()
Sea Level Pressure  
Sea Level Pressure 30.08 in    
Wind  
Wind Speed 15 mph (West)    
Max Wind Speed 20 mph    
Max Gust Speed 25 mph    
Visibility 9 miles    
Events Snow    
Averages and records for this station are not official NWS values.
T = Trace of Precipitation, MM = Missing Value Source: NWS Daily Summary

Daily Weather History Graph

Daily Weather History Graph

Search for Another Location

Airport:

Trip Planner

Search our weather history database for the weather conditions in past years. The results will help you decide how hot, cold, wet, or windy it might be!

Date:

Astronomy

Feb. 01, 2013 Rise Set
Actual Time 7:47 AM EST 5:47 PM EST
Civil Twilight 7:17 AM EST 6:17 PM EST
Nautical Twilight 6:44 AM EST 6:51 PM EST
Astronomical Twilight 6:10 AM EST 7:24 PM EST
Moon No Moon Rise 10:11 AM EST (2/1)
Length of Visible Light 10h 59m
Length of Day
9h 59m
Waning Gibbous, 70% of the Moon is Illuminated
Feb 1
Waning Gibbous
Feb 3
Last Quarter
Feb 10
New
Feb 17
First Quarter
Feb 25
Full

Hourly Weather History & Observations

Time (EST) Temp. Windchill Dew Point Humidity Pressure Visibility Wind Dir Wind Speed Gust Speed Precip Events Conditions
12:04 AM 15.8 °F 1.4 °F 8.6 °F 73% 29.82 in 8.0 mi West 13.8 mph - N/A   Overcast
12:23 AM 15.8 °F 0.9 °F 8.6 °F 73% 29.83 in 6.0 mi West 15.0 mph - 0.00 in Snow Light Snow
12:53 AM 15.1 °F -0.6 °F 8.1 °F 74% 29.88 in 10.0 mi West 16.1 mph - 0.00 in   Overcast
1:53 AM 14.0 °F -1.4 °F 8.1 °F 77% 29.90 in 10.0 mi West 15.0 mph - N/A   Partly Cloudy
2:27 AM 14.0 °F -0.2 °F 8.6 °F 79% 29.87 in 10.0 mi WNW 12.7 mph - 0.00 in Snow Light Snow
2:37 AM 14.0 °F -1.4 °F 8.6 °F 79% 29.87 in 9.0 mi WNW 15.0 mph - 0.00 in   Scattered Clouds
2:53 AM 14.0 °F -1.4 °F 9.0 °F 80% 29.94 in 10.0 mi West 15.0 mph - 0.00 in   Mostly Cloudy
3:04 AM 14.0 °F -2.0 °F 8.6 °F 79% 29.89 in 9.0 mi West 16.1 mph - N/A   Mostly Cloudy
3:30 AM 14.0 °F -0.2 °F 8.6 °F 79% 29.89 in 10.0 mi West 12.7 mph - N/A   Overcast
3:53 AM 14.0 °F -0.2 °F 9.0 °F 80% 29.96 in 10.0 mi West 12.7 mph - N/A   Mostly Cloudy
4:53 AM 12.9 °F -2.2 °F 8.1 °F 81% 29.99 in 10.0 mi West 13.8 mph - N/A   Partly Cloudy
5:09 AM 12.2 °F -1.8 °F 8.6 °F 85% 29.94 in 10.0 mi West 11.5 mph - N/A   Mostly Cloudy
5:49 AM 12.2 °F -3.7 °F 8.6 °F 85% 29.96 in 10.0 mi West 15.0 mph - N/A   Mostly Cloudy
5:53 AM 12.9 °F -2.8 °F 7.0 °F 77% 30.02 in 10.0 mi West 15.0 mph - N/A   Mostly Cloudy
6:53 AM 12.9 °F -3.4 °F 7.0 °F 77% 30.06 in 10.0 mi West 16.1 mph - N/A   Partly Cloudy
7:53 AM 12.9 °F -1.6 °F 6.1 °F 74% 30.10 in 10.0 mi West 12.7 mph - N/A   Scattered Clouds
8:46 AM 14.0 °F -1.4 °F 6.8 °F 73% 30.06 in 7.0 mi West 15.0 mph - N/A   Partly Cloudy
8:53 AM 14.0 °F -2.5 °F 7.0 °F 74% 30.12 in 10.0 mi West 17.3 mph - N/A   Scattered Clouds
9:42 AM 15.8 °F -0.6 °F 6.8 °F 68% 30.09 in 10.0 mi West 18.4 mph - N/A   Mostly Cloudy
9:53 AM 15.1 °F -2.0 °F 7.0 °F 70% 30.15 in 10.0 mi West 19.6 mph - N/A   Mostly Cloudy
10:53 AM 16.0 °F -0.4 °F 5.0 °F 62% 30.17 in 10.0 mi West 18.4 mph - N/A   Mostly Cloudy
11:03 AM 17.6 °F 2.2 °F 5.0 °F 58% 30.12 in 10.0 mi WNW 17.3 mph 25.3 mph N/A   Mostly Cloudy
11:53 AM 16.0 °F 0.1 °F 3.9 °F 59% 30.19 in 10.0 mi WNW 17.3 mph - N/A   Overcast
12:53 PM 17.1 °F 0.6 °F 6.1 °F 62% 30.19 in 6.0 mi West 19.6 mph - 0.00 in Snow Light Snow
1:53 PM 17.1 °F 2.5 °F 5.0 °F 59% 30.19 in 10.0 mi West 15.0 mph 21.9 mph 0.00 in   Mostly Cloudy
2:53 PM 17.1 °F 3.0 °F 7.0 °F 65% 30.19 in 7.0 mi West 13.8 mph - 0.00 in Snow Light Snow
3:02 PM 15.8 °F -0.2 °F 8.6 °F 73% 30.14 in 2.5 mi West 17.3 mph 25.3 mph 0.00 in Snow Light Snow
3:09 PM 17.6 °F 5.7 °F 8.6 °F 68% 30.14 in 7.0 mi West 10.4 mph 23.0 mph 0.00 in Snow Light Snow
3:53 PM 16.0 °F -0.9 °F 3.9 °F 59% 30.22 in 9.0 mi West 19.6 mph 25.3 mph 0.00 in Snow Light Snow
4:53 PM 16.0 °F 1.7 °F 5.0 °F 62% 30.22 in 10.0 mi WSW 13.8 mph 18.4 mph 0.00 in   Overcast
5:53 PM 14.0 °F -0.8 °F 6.1 °F 71% 30.22 in 6.0 mi SW 13.8 mph 20.7 mph 0.00 in Snow Light Snow
6:46 PM 12.2 °F -5.3 °F 3.2 °F 67% 30.18 in 10.0 mi WSW 18.4 mph 23.0 mph 0.00 in   Overcast
6:53 PM 12.9 °F -3.9 °F 3.0 °F 65% 30.24 in 10.0 mi WSW 17.3 mph 23.0 mph 0.00 in   Overcast
7:53 PM 10.9 °F -4.7 °F 1.0 °F 64% 30.25 in 10.0 mi WSW 13.8 mph - N/A   Overcast
8:49 PM 8.6 °F -7.0 °F -0.4 °F 67% 30.20 in 10.0 mi WSW 12.7 mph 21.9 mph N/A   Scattered Clouds
8:53 PM 9.0 °F -6.6 °F -0.9 °F 64% 30.26 in 10.0 mi WSW 12.7 mph 20.7 mph N/A   Scattered Clouds
9:53 PM 9.0 °F -6.6 °F -0.0 °F 67% 30.25 in 10.0 mi WSW 12.7 mph 20.7 mph N/A   Overcast
10:53 PM 9.0 °F -4.2 °F 1.0 °F 70% 30.23 in 10.0 mi SSW 9.2 mph - N/A   Overcast
11:53 PM 10.0 °F -5.2 °F 1.9 °F 70% 30.22 in 10.0 mi SW 12.7 mph 21.9 mph N/A   Overcast